CST,Max TemperatureF,Mean TemperatureF,Min TemperatureF,Max Dew PointF,MeanDew PointF,Min DewpointF,Max Humidity, Mean Humidity, Min Humidity, Max Sea Level PressureIn, Mean Sea Level PressureIn, Min Sea Level PressureIn, Max VisibilityMiles, Mean VisibilityMiles, Min VisibilityMiles, Max Wind SpeedMPH, Mean Wind SpeedMPH, Max Gust SpeedMPH,PrecipitationIn, CloudCover, Events, WindDirDegrees
2012-1-1,55,45,34,47,28,13,83,56,28,30.38,30.17,29.80,10,10,10,28,16,39,0.00,1,,295
2012-1-2,39,32,24,17,11,4,58,41,24,30.51,30.41,30.35,10,10,10,28,15,37,0.00,0,,317
2012-1-3,35,26,17,19,13,8,80,59,38,30.60,30.45,30.28,10,10,10,14,7,18,0.00,0,,218
2012-1-4,49,38,27,30,25,19,92,67,42,30.26,30.18,30.10,10,10,10,12,6,16,0.00,0,,209
2012-1-5,57,41,25,37,31,23,92,68,43,30.23,30.12,29.98,10,10,10,16,6,21,0.00,0,,188
2012-1-6,62,47,32,50,38,29,93,68,43,29.99,29.93,29.84,10,10,10,21,8,28,0.00,0,,192
2012-1-7,57,45,33,47,31,23,93,60,27,30.20,30.08,29.90,10,9,2,14,6,17,0.00,2,,16
2012-1-8,50,42,34,35,31,28,76,61,46,30.29,30.23,30.21,10,10,10,14,9,18,T,6,,36
2012-1-9,54,42,29,36,31,27,85,60,35,30.25,30.19,30.15,10,10,10,10,4,13,0.00,2,,351
2012-1-10,56,41,25,43,33,23,100,66,32,30.15,29.92,29.71,10,7,2,12,5,15,0.86,4,Rain,48
2012-1-11,48,44,39,44,42,37,100,93,86,29.71,29.60,29.55,10,4,0,13,5,16,0.43,7,Fog-Rain,306
2012-1-12,42,32,21,39,22,10,100,81,62,29.99,29.78,29.63,10,7,0,31,16,41,0.03,8,Fog-Snow,299
2012-1-13,33,26,19,20,16,10,88,71,54,30.20,30.11,29.99,10,10,10,21,6,29,T,3,,275
2012-1-14,46,33,20,27,21,16,84,65,45,30.35,30.15,30.00,10,10,10,18,8,25,0.00,1,,196
2012-1-15,44,33,21,31,25,18,92,73,53,30.46,30.34,30.16,10,10,6,16,7,20,0.00,0,,159
2012-1-16,63,52,41,56,48,32,84,70,56,30.14,29.95,29.81,10,10,10,31,20,44,0.02,7,Rain-Thunderstorm,194
2012-1-17,63,45,27,59,42,18,90,77,63,30.34,29.97,29.73,10,9,1,32,18,41,0.22,5,Rain,284
2012-1-18,33,27,20,24,19,15,85,72,59,30.39,30.27,30.09,10,10,10,15,6,20,0.00,1,,262
2012-1-19,47,38,29,33,27,23,85,69,53,30.09,30.03,29.96,10,10,10,17,8,21,0.00,1,,183
2012-1-20,40,34,28,34,27,21,92,78,64,30.09,29.96,29.80,10,9,5,21,9,26,T,8,Rain,41
2012-1-21,33,30,26,28,24,21,85,76,66,30.19,30.10,29.95,10,9,6,23,11,28,0.00,8,,19
2012-1-22,63,48,32,61,45,28,100,91,82,30.07,29.81,29.55,10,3,0,35,12,43,0.81,8,Fog-Rain,157
2012-1-23,57,46,34,52,38,32,92,74,56,30.09,29.85,29.55,10,10,10,31,13,37,0.00,2,,238
2012-1-24,52,41,29,33,30,27,92,68,44,30.33,30.26,30.11,10,9,2,8,2,14,0.00,0,,56
2012-1-25,41,38,34,38,35,30,92,84,76,30.29,30.13,29.88,10,7,2,16,8,21,0.42,7,Rain,56
2012-1-26,42,39,35,39,37,34,100,91,82,29.90,29.81,29.72,10,6,1,17,7,21,0.16,7,Rain,336
2012-1-27,43,37,31,37,34,30,96,83,70,30.06,29.99,29.83,10,8,5,7,4,10,T,3,Rain,212
2012-1-28,47,39,30,38,28,20,92,63,34,30.37,30.25,29.99,10,9,4,24,8,33,0.01,2,,312
2012-1-29,54,42,29,34,28,21,85,60,35,30.33,30.29,30.25,10,10,10,17,9,23,0.00,0,,208
2012-1-30,60,46,31,41,34,28,85,65,44,30.25,30.18,30.10,10,10,10,25,11,32,0.00,1,,191
2012-1-31,60,54,47,54,46,33,86,68,50,30.14,30.08,30.03,10,10,10,22,15,29,0.01,7,Rain,199